Location: Ca�n Batista
(41.4099°N, 1.7752°E)
Time: 14:18:18
(UTC+00:00)

SL-4 R/B - Pass Details

Date: 03 March 2021
Orbit: 428 x 663 km, 51.6° (Epoch: 21 April)

Event Time Altitude Azimuth Distance (km) Brightness Sun altitude
Rises 18:09:58 0° 299° (WNW) 2,516 6.5 -5.3°
Reaches altitude 10° 18:12:50 10° 323° (NW) 1,598 4.9 -5.8°
Maximum altitude 18:15:05 16° 2° (N) 1,267 3.8 -6.2°
Drops below altitude 10° 18:17:17 10° 41° (NE) 1,550 3.9 -6.7°
Enters shadow 18:18:33 - 55° (NE) 1,907 4.3 -6.9°
